Location: Unspecified
(0.0000°N, 0.0000°E)
Time: 12:11:27
(UTC+02:00)

SWIFT - Pass Details

Date: 25 April 2018
Orbit: 546 x 562 km, 20.6° (Epoch: 23 May)

Event Time Altitude Azimuth Distance (km) Brightness Sun altitude
Rises 21:50:19 0° 290° (WNW) 2,725 7.2 -27.3°
Reaches altitude 10° 21:54:08 10° 324° (NW) 1,830 5.6 -28.2°
Maximum altitude 21:55:34 11° 344° (NNW) 1,738 5.2 -28.5°
Enters shadow 21:56:25 11° 356° (N) 1,771 5.1 -28.7°
